Regional Weather Roundup
Issued by NWS

Home | Current Version | Previous Version | Graphics & Text | Print | Product List | Glossary On
Versions: 1 2 3 4 5 6 7 8 9 10 11 12 13 14 15 16 17 18 19 20 21 22 23 24 25 26 27
000
ASUS45 KSLC 291910
RWRUT

UTAH REGIONAL WEATHER ROUNDUP
NATIONAL WEATHER SERVICE SALT LAKE CITY UT
100 PM MDT FRI APR 29 2016

UTZ001>011-023>025-292000-

NORTHERN UTAH

CITY           SKY/WX    TMP DP  RH WIND       PRES   REMARKS
BRIGHAM CITY   CLOUDY    51  31  46 CALM      29.90F
HILL AFB       CLOUDY    49  32  52 VRB5      29.89F
LOGAN          CLOUDY    50  33  52 W8        29.88F
OGDEN          CLOUDY    50  32  50 CALM      29.88F
PROVO AIRPORT  PTSUNNY   48  37  66 CALM      29.89F
SALT LAKE CITY PTSUNNY   53  33  46 CALM      29.89F
VERNAL         CLOUDY    49  37  63 SE9       29.84F
WENDOVER       CLOUDY    54  32  43 N5        29.89F
HEBER CITY     CLOUDY    43  32  65 CALM      29.88F

$$

UTZ012>022-026-027-292000-

SOUTHERN/CENTRAL UTAH

CITY           SKY/WX    TMP DP  RH WIND       PRES   REMARKS
BLANDING       CLOUDY    45  37  74 SW8       29.93F
BRYCE CANYON   PTSUNNY   42  35  76 W12       29.94R
CEDAR CITY     MOSUNNY   54  36  50 N8        29.91F
DELTA          PTSUNNY   54  34  47 NW10G21   29.89F
MILFORD        MOSUNNY   56  34  43 VRB7      29.90F
MOAB/CYNLANDS  PTSUNNY   52  41  66 SE13      29.82F
PRICE          MOSUNNY   52  33  48 NW13G24   29.83F
ST GEORGE      MOCLDY    64  43  45 S3        29.90F

$$

REGIONAL REPORTS     COLORADO/ARIZONA

CITY           SKY/WX    TMP DP  RH WIND       PRES   REMARKS
CRAIG, CO      LGT RAIN  44  36  73 N13       29.83F
GRAND JUNCTION CLOUDY    53  35  50 NW9G25    29.81F
RIFLE          CLOUDY    52  30  43 W10       29.80F
MONTROSE       CLOUDY    48  33  56 W3        29.85F
CORTEZ         PTSUNNY   50  31  48 SW12G23   29.84F
PAGE, AZ       SUNNY     58  37  45 MISG      29.86F
GRAND CANYON   PTSUNNY   48  34  58 W12G18    29.95F
KINGMAN        SUNNY     64  44  48 VRB6      29.94F
FLAGSTAFF      PTSUNNY   45  39  79 SW9       29.96F

$$

REGIONAL REPORTS    NEVADA/IDAHO/WYOMING

CITY           SKY/WX    TMP DP  RH WIND       PRES   REMARKS
LAS VEGAS, NV  MOSUNNY   71  40  32 E8        29.86F
ELY            CLOUDY    43  36  76 W13       29.96S
ELKO           LGT RAIN  44  36  73 NW10      29.94S
POCATELLO, ID  CLOUDY    51  37  58 SW8       29.88F
BURLEY         PTSUNNY   52  39  61 W7        29.87F
EVANSTON, WY   CLOUDY    37  25  61 CALM      29.91F
ROCK SPRINGS   CLOUDY    37  30  75 NE14      29.91F WCI  28
KEMMERER       CLOUDY    34  28  80 CALM      29.91F

$$




USA.gov is the U.S. government's official web portal to all federal, state and local government web resources and services.